EW3533 Weather Reports


Display with metric or nautical units.
time (UTC)temp
F
wind
direction
speed
MPH
gust
MPH
rain 1hr
in
rain 24hr
in
rain mn
in
humidity
%
barometer
mb
20220706121559 67 31 4.0 7.0 0.00 0.00 0.00 89 1013.9
20220706120056 67 41 2.0 5.0 0.00 0.00 0.00 90 1013.6
20220706114557 66 42 0.0 4.0 0.00 0.00 0.00 90 1013.7
20220706113055 66 115 0.0 1.0 0.00 0.00 0.00 91 1013.5
20220706111556 66 115 0.0 0.0 0.00 0.00 0.00 91 1013.4
20220706110054 66 115 0.0 0.0 0.00 0.00 0.00 91 1013.6
20220706104552 66 115 0.0 0.0 0.00 0.00 0.00 91 1013.2
20220706103051 66 115 0.0 0.0 0.00 0.00 0.00 92 1013.2
20220706101556 65 115 0.0 0.0 0.00 0.00 0.00 92 1013.2
20220706100057 65 115 0.0 0.0 0.00 0.00 0.00 92 1013.1
20220706094603 65 115 0.0 0.0 0.00 0.00 0.00 91 1013.0
20220706093052 65 115 0.0 0.0 0.00 0.00 0.00 91 1012.6
20220706091553 65 115 0.0 0.0 0.00 0.00 0.00 91 1012.4
20220706090053 65 115 0.0 0.0 0.00 0.00 0.00 91 1012.0
20220706084552 65 115 0.0 0.0 0.00 0.09 0.00 90 1011.9
20220706083052 65 115 0.0 0.0 0.00 0.09 0.00 90 1011.7
20220706081548 65 115 0.0 3.0 0.00 0.09 0.00 89 1011.5
20220706080043 66 115 0.0 1.0 0.00 0.09 0.00 89 1012.0
20220706074542 66 115 0.0 2.0 0.00 0.11 0.00 89 1012.1
20220706073047 66 114 0.0 2.0 0.00 0.11 0.00 89 1012.4
20220706071539 66 114 0.0 0.0 0.00 0.11 0.00 90 1012.4
20220706070046 66 114 0.0 0.0 0.00 0.11 0.00 90 1012.4
20220706064538 66 114 0.0 2.0 0.00 0.11 0.00 89 1012.3
20220706063038 66 114 0.0 2.0 0.00 0.11 0.00 88 1012.0
20220706061538 67 114 0.0 0.0 0.00 0.11 0.00 88 1012.2
20220706060036 67 114 0.0 2.0 0.00 0.11 0.00 87 1012.1
20220706054534 68 114 0.0 2.0 0.00 0.13 0.00 86 1012.3
20220706053053 68 114 0.0 2.0 0.00 0.13 0.00 87 1012.3
20220706051536 68 114 1.0 3.0 0.00 0.13 0.00 86 1012.5
20220706050029 68 114 0.0 3.0 0.00 0.13 0.00 86 1011.9
20220706044536 69 114 1.0 6.0 0.00 0.13 0.00 85 1010.9
20220706043023 70 54 2.0 5.0 0.00 0.13 0.00 85 1010.7
20220706041522 70 70 2.0 5.0 0.00 0.13 0.00 84 1010.6
20220706040019 72 68 2.0 7.0 0.00 0.13 0.00 83 1010.6
20220706034531 72 74 1.0 4.0 0.00 0.13 0.00 82 1010.6
20220706033023 73 67 3.0 6.0 0.00 0.13 0.00 82 1010.7
20220706031514 74 56 3.0 7.0 0.00 0.13 0.00 82 1010.9
20220706030010 74 21 3.0 6.0 0.00 0.13 0.00 82 1010.8
20220706024507 75 19 2.0 4.0 0.00 0.13 0.00 81 1010.8
20220706023011 75 19 1.0 4.0 0.00 0.13 0.00 80 1010.3
20220706021501 76 5 0.0 3.0 0.00 0.13 0.00 79 1010.1
20220706020057 76 5 1.0 3.0 0.00 0.13 0.00 78 1009.8
20220706014601 77 5 0.0 4.0 0.00 0.13 0.00 76 1009.7
20220706013052 77 10 1.0 2.0 0.00 0.13 0.00 75 1009.2
20220706011552 78 10 1.0 2.0 0.00 0.13 0.00 74 1009.2
20220706010049 78 10 1.0 5.0 0.00 0.13 0.00 72 1009.2
20220706004646 79 10 1.0 4.0 0.00 0.13 0.00 70 1009.0
20220706003043 80 15 3.0 6.0 0.00 0.13 0.00 68 1009.0
20220706001543 80 5 3.0 10.0 0.00 0.13 0.00 69 1009.2
20220706000041 81 5 4.0 11.0 0.00 0.13 0.00 67 1009.1
20220705234540 81 355 5.0 11.0 0.00 0.13 0.00 67 1009.3
20220705233046 81 346 7.0 13.0 0.00 0.13 0.00 66 1009.0
20220705231551 82 355 7.0 13.0 0.00 0.13 0.00 68 1009.0
20220705230053 82 355 8.0 12.0 0.00 0.13 0.00 67 1008.8
20220705224554 82 15 9.0 13.0 0.00 0.13 0.00 67 1008.6
20220705223049 82 355 8.0 15.0 0.00 0.13 0.00 68 1008.7
20220705221535 82 11 6.0 14.0 0.00 0.13 0.00 68 1008.7
20220705220035 82 342 7.0 13.0 0.00 0.13 0.00 68 1008.7
20220705214532 82 360 9.0 13.0 0.00 0.13 0.00 68 1008.7
20220705213032 82 9 9.0 16.0 0.00 0.13 0.00 68 1008.6
20220705211534 82 342 8.0 14.0 0.00 0.13 0.00 70 1008.6
20220705210034 82 355 8.0 16.0 0.00 0.13 0.00 70 1008.6
20220705204526 81 355 7.0 16.0 0.00 0.13 0.00 70 1008.7
20220705203024 81 335 10.0 15.0 0.00 0.13 0.00 70 1008.8
20220705201531 82 23 9.0 13.0 0.00 0.13 0.00 70 1009.0
20220705200024 82 333 8.0 15.0 0.00 0.13 0.00 70 1008.9
20220705194522 82 331 11.0 16.0 0.00 0.13 0.00 70 1008.8
20220705193023 82 28 10.0 15.0 0.00 0.13 0.00 70 1008.8
20220705191519 82 348 7.0 16.0 0.00 0.13 0.00 71 1008.8
20220705190014 86 5 9.0 13.0 0.00 0.13 0.00 64 1008.6
20220705184522 86 344 6.0 10.0 0.00 0.13 0.13 63 1008.5
20220705183011 85 342 3.0 13.0 0.00 0.13 0.13 63 1008.6
20220705181518 85 291 3.0 10.0 0.00 0.13 0.13 67 1008.6
20220705180011 84 265 3.0 13.0 0.00 0.13 0.13 66 1008.5
20220705174511 83 276 4.0 12.0 0.00 0.13 0.13 68 1008.4
20220705173011 83 217 6.0 13.0 0.00 0.13 0.13 68 1008.4
20220705171509 82 241 6.0 13.0 0.00 0.13 0.13 70 1008.4
20220705170009 82 285 4.0 10.0 0.00 0.13 0.13 73 1008.3
20220705164509 81 227 4.0 12.0 0.00 0.13 0.13 75 1008.5
20220705163009 80 254 6.0 11.0 0.00 0.13 0.13 79 1008.6
20220705161513 79 265 7.0 17.0 0.00 0.13 0.13 78 1008.5
20220705160007 78 265 5.0 13.0 0.00 0.13 0.13 82 1008.5
20220705154507 78 244 12.0 17.0 0.00 0.14 0.13 82 1008.5
20220705153007 77 252 10.0 16.0 0.00 0.14 0.13 83 1008.4
20220705151507 76 211 7.0 14.0 0.00 0.14 0.13 85 1008.4
20220705150006 76 236 5.0 13.0 0.00 0.14 0.13 87 1008.4
20220705144506 75 226 6.0 14.0 0.00 0.14 0.13 87 1008.2
20220705143005 74 248 7.0 15.0 0.00 0.14 0.13 88 1008.2
20220705141505 74 249 8.0 15.0 0.00 0.14 0.13 89 1008.2
20220705140010 74 236 5.0 15.0 0.00 0.14 0.13 90 1008.1
20220705134503 73 239 8.0 14.0 0.00 0.18 0.13 90 1008.2
20220705133002 73 236 9.0 14.0 0.00 0.18 0.13 90 1008.4
20220705131500 72 239 5.0 18.0 0.00 0.18 0.13 91 1008.3
20220705130102 72 243 7.0 13.0 0.00 0.18 0.13 91 1008.2
20220705124606 71 252 4.0 12.0 0.00 0.18 0.13 91 1008.4
20220705123057 71 247 4.0 12.0 0.00 0.18 0.13 91 1008.5